Location: Home
(42.5358°N, 72.7383°W)
Time: 06:15:49
(UTC-05:00)

Explorer 11/Cluster Stage 4 - Pass Details

Date: 04 December 2021
Orbit: 467 x 1255 km, 28.8° (Epoch: 25 January)

Event Time Altitude Azimuth Distance (km) Brightness Sun altitude
Rises 07:02:54 0° 255° (WSW) 4,087 9.8 -1.1°
Reaches altitude 10° 07:07:50 10° 230° (SW) 3,200 9.5 -0.3°
Maximum altitude 07:10:57 13° 207° (SSW) 3,018 9.7 0.2°
Drops below altitude 10° 07:14:06 10° 184° (S) 3,215 10.1 0.7°
Sets 07:19:06 0° 158° (SSE) 4,128 11.3 1.5°
